When you browse on this site, cookies collect data to enhance your experience and personalize the content and advertising you see.
Visit our Privacy Policy to learn more. By continuing to use the site, you agree to this use of cookies and data.
EN

Hourly Weather Bonn

Today, 14 July, Tuesday

Time Temperature Precipitation Wind Pressure Humidity
00:00 +17°C° 0 mm 0 mps 757 mmHg 73%
01:00 +18°C° 0 mm 1 mps 756 mmHg 74%
02:00 +18°C° 0 mm 1 mps 756 mmHg 76%
03:00 +16°C° 0 mm 1 mps 756 mmHg 78%
04:00 +18°C° 0 mm 1 mps 756 mmHg 76%
05:00 +17°C° 0 mm 0 mps 755 mmHg 75%
06:00 +18°C° 0 mm 0 mps 755 mmHg 70%
07:00 +19°C° 0 mm 0 mps 755 mmHg 65%
08:00 +22°C° 0 mm 1 mps 755 mmHg 61%
09:00 +24°C° 0 mm 1 mps 755 mmHg 57%
10:00 +24°C° 0.1 mm 1 mps 755 mmHg 55%
11:00 +25°C° 0.1 mm 2 mps 754 mmHg 52%
12:00 +25°C° 0.1 mm 2 mps 754 mmHg 50%
13:00 +24°C° 0.1 mm 3 mps 754 mmHg 54%
14:00 +22°C° 0.1 mm 3 mps 754 mmHg 58%
15:00 +21°C° 0.1 mm 3 mps 753 mmHg 62%
16:00 +20°C° 0.1 mm 2 mps 753 mmHg 66%
17:00 +19°C° 0.1 mm 2 mps 753 mmHg 70%
18:00 +19°C° 0.1 mm 1 mps 753 mmHg 74%
19:00 +19°C° 0 mm 1 mps 753 mmHg 75%
20:00 +18°C° 0 mm 1 mps 753 mmHg 76%
21:00 +18°C° 0 mm 1 mps 753 mmHg 76%
22:00 +18°C° 0.3 mm 1 mps 753 mmHg 79%
23:00 +16°C° 0.3 mm 1 mps 753 mmHg 82%

Tomorrow, 15 July, Wednesday

Time Temperature Precipitation Wind Pressure Humidity
00:00 +16°C° 0.3 mm 1 mps 753 mmHg 85%
01:00 +16°C° 0.8 mm 1 mps 753 mmHg 88%
02:00 +16°C° 0.8 mm 1 mps 753 mmHg 90%
03:00 +15°C° 0.8 mm 1 mps 752 mmHg 93%
04:00 +15°C° 0.1 mm 2 mps 753 mmHg 92%
05:00 +15°C° 0.1 mm 2 mps 753 mmHg 91%
06:00 +14°C° 0.1 mm 3 mps 753 mmHg 90%
07:00 +16°C° 0 mm 3 mps 753 mmHg 83%
08:00 +17°C° 0 mm 3 mps 753 mmHg 76%
09:00 +18°C° 0 mm 3 mps 754 mmHg 69%
10:00 +19°C° 0 mm 3 mps 754 mmHg 62%
11:00 +21°C° 0 mm 4 mps 754 mmHg 55%
12:00 +22°C° 0 mm 4 mps 754 mmHg 48%
13:00 +22°C° 0 mm 4 mps 754 mmHg 48%
14:00 +22°C° 0 mm 4 mps 753 mmHg 49%
15:00 +22°C° 0 mm 4 mps 753 mmHg 49%
16:00 +21°C° 0 mm 3 mps 754 mmHg 54%
17:00 +21°C° 0 mm 3 mps 754 mmHg 59%
18:00 +20°C° 0 mm 2 mps 754 mmHg 64%
19:00 +19°C° 0 mm 2 mps 755 mmHg 68%
20:00 +18°C° 0 mm 2 mps 755 mmHg 72%
21:00 +18°C° 0 mm 1 mps 756 mmHg 76%
22:00 +18°C° 0 mm 1 mps 756 mmHg 77%
23:00 +18°C° 0 mm 1 mps 756 mmHg 78%

Day after tomorrow, 16 July, Thursday

Time Temperature Precipitation Wind Pressure Humidity
00:00 +16°C° 0 mm 1 mps 756 mmHg 78%
01:00 +16°C° 0 mm 1 mps 756 mmHg 81%
02:00 +15°C° 0 mm 1 mps 756 mmHg 83%
03:00 +15°C° 0 mm 2 mps 756 mmHg 85%
04:00 +15°C° 0 mm 2 mps 756 mmHg 83%
05:00 +16°C° 0 mm 2 mps 756 mmHg 81%
06:00 +16°C° 0 mm 2 mps 756 mmHg 78%
07:00 +16°C° 0 mm 2 mps 756 mmHg 78%
08:00 +16°C° 0 mm 2 mps 756 mmHg 79%
09:00 +17°C° 0 mm 2 mps 756 mmHg 79%
10:00 +16°C° 0.3 mm 2 mps 756 mmHg 82%
11:00 +16°C° 0.3 mm 2 mps 756 mmHg 86%
12:00 +16°C° 0.3 mm 2 mps 756 mmHg 90%
13:00 +16°C° 0.7 mm 2 mps 756 mmHg 91%
14:00 +16°C° 0.7 mm 2 mps 756 mmHg 93%
15:00 +16°C° 0.7 mm 2 mps 756 mmHg 94%
16:00 +16°C° 0.1 mm 2 mps 756 mmHg 93%
17:00 +17°C° 0.1 mm 2 mps 756 mmHg 92%
18:00 +17°C° 0.1 mm 2 mps 756 mmHg 91%
19:00 +17°C° 0.2 mm 2 mps 756 mmHg 92%
20:00 +17°C° 0.2 mm 3 mps 756 mmHg 92%
21:00 +17°C° 0.2 mm 3 mps 756 mmHg 92%
22:00 +16°C° 0.1 mm 3 mps 756 mmHg 92%
23:00 +16°C° 0.1 mm 3 mps 756 mmHg 93%

17 July, Friday

Time Temperature Precipitation Wind Pressure Humidity
00:00 +16°C° 0.1 mm 3 mps 756 mmHg 93%
01:00 +14°C° 0 mm 3 mps 756 mmHg 93%
02:00 +14°C° 0 mm 3 mps 756 mmHg 94%
03:00 +13°C° 0 mm 3 mps 756 mmHg 95%
04:00 +14°C° 0 mm 3 mps 756 mmHg 94%
05:00 +14°C° 0 mm 3 mps 757 mmHg 93%
06:00 +15°C° 0 mm 2 mps 757 mmHg 93%
07:00 +16°C° 0 mm 2 mps 757 mmHg 91%
08:00 +16°C° 0 mm 2 mps 757 mmHg 88%
09:00 +17°C° 0 mm 2 mps 757 mmHg 86%
10:00 +18°C° 0.1 mm 2 mps 757 mmHg 79%
11:00 +19°C° 0.1 mm 2 mps 757 mmHg 73%
12:00 +21°C° 0.1 mm 3 mps 757 mmHg 66%
13:00 +21°C° 0 mm 3 mps 757 mmHg 64%
14:00 +22°C° 0 mm 3 mps 757 mmHg 61%
15:00 +22°C° 0 mm 3 mps 757 mmHg 59%
16:00 +22°C° 0 mm 3 mps 757 mmHg 61%
17:00 +21°C° 0 mm 2 mps 757 mmHg 64%
18:00 +21°C° 0 mm 2 mps 757 mmHg 67%
19:00 +20°C° 0 mm 1 mps 757 mmHg 73%
20:00 +18°C° 0 mm 1 mps 757 mmHg 79%
21:00 +15°C° 0 mm 0 mps 758 mmHg 84%
22:00 +14°C° 0 mm 0 mps 758 mmHg 85%
23:00 +14°C° 0 mm 0 mps 758 mmHg 87%

18 July, Saturday

Time Temperature Precipitation Wind Pressure Humidity
00:00 +14°C° 0 mm 0 mps 758 mmHg 88%
01:00 +13°C° 0 mm 0 mps 758 mmHg 88%
02:00 +13°C° 0 mm 0 mps 757 mmHg 88%
03:00 +13°C° 0 mm 0 mps 757 mmHg 89%
04:00 +14°C° 0 mm 0 mps 757 mmHg 86%
05:00 +15°C° 0 mm 0 mps 757 mmHg 82%
06:00 +17°C° 0 mm 0 mps 757 mmHg 79%
07:00 +19°C° 0 mm 0 mps 757 mmHg 71%
08:00 +21°C° 0 mm 0 mps 757 mmHg 63%
09:00 +23°C° 0 mm 0 mps 757 mmHg 55%
10:00 +26°C° 0 mm 1 mps 757 mmHg 52%
11:00 +27°C° 0 mm 1 mps 757 mmHg 48%
12:00 +28°C° 0 mm 1 mps 756 mmHg 45%
13:00 +28°C° 0 mm 1 mps 756 mmHg 45%
14:00 +27°C° 0 mm 1 mps 756 mmHg 46%
15:00 +27°C° 0 mm 1 mps 755 mmHg 47%
16:00 +27°C° 0 mm 1 mps 755 mmHg 51%
17:00 +26°C° 0 mm 1 mps 755 mmHg 56%
18:00 +23°C° 0 mm 0 mps 755 mmHg 60%
19:00 +22°C° 0 mm 0 mps 755 mmHg 64%
20:00 +20°C° 0 mm 0 mps 755 mmHg 68%
21:00 +18°C° 0 mm 0 mps 755 mmHg 72%
22:00 +18°C° 0 mm 0 mps 755 mmHg 73%
23:00 +20°C° 0 mm 1 mps 755 mmHg 75%

19 July, Sunday

Time Temperature Precipitation Wind Pressure Humidity
00:00 +19°C° 0 mm 1 mps 755 mmHg 77%
01:00 +19°C° 0 mm 1 mps 755 mmHg 77%
02:00 +19°C° 0 mm 1 mps 755 mmHg 78%
03:00 +19°C° 0 mm 1 mps 754 mmHg 79%
04:00 +19°C° 0 mm 1 mps 754 mmHg 78%
05:00 +19°C° 0 mm 2 mps 754 mmHg 78%
06:00 +19°C° 0 mm 2 mps 754 mmHg 78%
07:00 +20°C° 0 mm 2 mps 755 mmHg 72%
08:00 +22°C° 0 mm 3 mps 755 mmHg 67%
09:00 +24°C° 0 mm 3 mps 755 mmHg 61%
10:00 +25°C° 0 mm 3 mps 755 mmHg 57%
11:00 +25°C° 0 mm 4 mps 755 mmHg 54%
12:00 +26°C° 0 mm 4 mps 755 mmHg 50%
13:00 +25°C° 0.4 mm 4 mps 755 mmHg 56%
14:00 +25°C° 0.4 mm 4 mps 755 mmHg 62%
15:00 +23°C° 0.4 mm 4 mps 755 mmHg 68%
16:00 +22°C° 0.4 mm 4 mps 755 mmHg 71%
17:00 +21°C° 0.4 mm 4 mps 755 mmHg 75%
18:00 +20°C° 0.4 mm 3 mps 756 mmHg 79%
19:00 +19°C° 0.2 mm 3 mps 756 mmHg 81%
20:00 +18°C° 0.2 mm 3 mps 757 mmHg 82%
21:00 +17°C° 0.2 mm 2 mps 757 mmHg 84%
22:00 +16°C° 0.1 mm 2 mps 757 mmHg 85%
23:00 +16°C° 0.1 mm 2 mps 758 mmHg 86%
Show more